Weather History for Scottsdale, AZ

Change the Weather History Date:

Thursday, May 29, 2014

  Actual Average Record
Temperature  
Mean Temperature 88 °F -  
Max Temperature 95 °F 95 °F 109 °F (2000)
Min Temperature 82 °F 70 °F 62 °F (2006)
Cooling Degree Days 24    
Growing Degree Days 38 (Base 50)    
Moisture  
Dew Point 41 °F    
Average Humidity 19    
Maximum Humidity 25    
Minimum Humidity 16    
Precipitation  
Precipitation 0.00 in - - ()
Sea Level Pressure  
Sea Level Pressure 29.79 in    
Wind  
Wind Speed 3 mph (East)    
Max Wind Speed 15 mph    
Max Gust Speed 23 mph    
Visibility 10 miles    
Events      
Averages and records for this station are not official NWS values.
T = Trace of Precipitation, MM = Missing Value Source: NWS Daily Summary

Daily Weather History Graph

Daily Weather History Graph

Search for Another Location

Airport:

Trip Planner

Search our weather history database for the weather conditions in past years. The results will help you decide how hot, cold, wet, or windy it might be!

Date:

Astronomy

May. 29, 2014 Rise Set
Actual Time 5:19 AM MST 7:31 PM MST
Civil Twilight 4:50 AM MST 7:59 PM MST
Nautical Twilight 4:16 AM MST 8:34 PM MST
Astronomical Twilight 3:38 AM MST 9:11 PM MST
Moon 6:13 AM MST (5/29) 8:26 PM MST (5/29)
Length of Visible Light 15h 08m
Length of Day
14h 11m
New Moon, 1% of the Moon is Illuminated
May 29
New Moon
Jun 5
First Quarter
Jun 12
Full
Jun 19
Last Quarter
Jun 27
New

Hourly Weather History & Observations

Time (MST) Temp. Dew Point Humidity Pressure Visibility Wind Dir Wind Speed Gust Speed Precip Events Conditions
1:53 AM 84.9 °F 37.0 °F 18% 29.74 in 10.0 mi Calm Calm - N/A   Clear
2:53 AM 84.0 °F 37.0 °F 19% 29.74 in 10.0 mi Calm Calm - N/A   Clear
3:53 AM 84.0 °F 39.0 °F 20% 29.76 in 10.0 mi Calm Calm - N/A   Clear
4:53 AM 82.9 °F 39.0 °F 21% 29.77 in 10.0 mi Calm Calm - N/A   Clear
5:53 AM 84.0 °F 37.9 °F 19% 29.78 in 10.0 mi Calm Calm - N/A   Clear
6:53 AM 84.0 °F 37.9 °F 19% 29.81 in 10.0 mi Calm Calm - N/A   Clear
7:53 AM 82.0 °F 43.0 °F 25% 29.84 in 10.0 mi East 3.5 mph - N/A   Mostly Cloudy
8:53 AM 86.0 °F 37.0 °F 18% 29.82 in 10.0 mi ENE 5.8 mph - N/A   Scattered Clouds
9:53 AM 88.0 °F 39.0 °F 18% 29.83 in 10.0 mi East 3.5 mph - N/A   Clear
10:53 AM 89.1 °F 37.9 °F 16% 29.84 in 10.0 mi Calm Calm - N/A   Clear
11:53 AM 91.0 °F 39.0 °F 16% 29.85 in 10.0 mi SE 6.9 mph - N/A   Clear
12:53 PM 93.0 °F 43.0 °F 18% 29.85 in 10.0 mi SE 15.0 mph 23.0 mph N/A   Clear
3:53 PM 95.0 °F 44.1 °F 17% 29.79 in 10.0 mi East 10.4 mph - N/A   Clear
4:53 PM 95.0 °F 43.0 °F 17% 29.76 in 10.0 mi East 6.9 mph - N/A   Clear
5:53 PM 93.9 °F 43.0 °F 17% 29.75 in 10.0 mi East 10.4 mph - N/A   Clear
6:53 PM 93.9 °F 44.1 °F 18% 29.75 in 10.0 mi ESE 4.6 mph - N/A   Clear
7:53 PM 93.0 °F 43.0 °F 18% 29.75 in 10.0 mi East 6.9 mph - N/A   Partly Cloudy
8:53 PM 91.0 °F 44.1 °F 20% 29.76 in 10.0 mi East 5.8 mph - N/A   Clear
9:53 PM 90.0 °F 44.1 °F 20% 29.77 in 10.0 mi East 5.8 mph - N/A   Clear
10:53 PM 89.1 °F 43.0 °F 20% 29.78 in 10.0 mi East 5.8 mph - N/A   Clear
11:53 PM 86.0 °F 44.1 °F 23% 29.78 in 10.0 mi Calm Calm - N/A   Clear